EW4338 Weather Reports


Display with metric or nautical units.
time (UTC)temp
F
wind
direction
speed
MPH
gust
MPH
rain 1hr
in
rain 24hr
in
rain mn
in
humidity
%
barometer
mb
20221126153017 48 186 3.0 7.0 0.00 0.00 0.00 26 1017.7
20221126152515 48 190 3.0 5.0 0.00 0.00 0.00 26 1017.8
20221126152014 48 193 2.0 5.0 0.00 0.00 0.00 27 1017.9
20221126151525 47 190 3.0 5.0 0.00 0.00 0.00 27 1017.9
20221126151011 47 181 3.0 5.0 0.00 0.00 0.00 28 1017.8
20221126150510 46 198 2.0 9.0 0.00 0.00 0.00 28 1017.8
20221126150014 46 204 3.0 10.0 0.00 0.00 0.00 28 1017.9
20221126145506 46 173 6.0 10.0 0.00 0.00 0.00 29 1017.8
20221126145006 45 197 6.0 10.0 0.00 0.00 0.00 29 1017.8
20221126144504 45 211 5.0 11.0 0.00 0.00 0.00 29 1017.8
20221126144002 44 186 6.0 10.0 0.00 0.00 0.00 30 1018.0
20221126143501 44 172 6.0 10.0 0.00 0.00 0.00 30 1018.0
20221126143000 43 197 6.0 9.0 0.00 0.00 0.00 31 1018.1
20221126142602 43 174 6.0 9.0 0.00 0.00 0.00 32 1018.0
20221126142100 43 168 5.0 8.0 0.00 0.00 0.00 34 1018.0
20221126141558 43 181 3.0 7.0 0.00 0.00 0.00 31 1017.9
20221126141058 42 155 2.0 9.0 0.00 0.00 0.00 32 1017.9
20221126140556 43 188 6.0 9.0 0.00 0.00 0.00 32 1017.8
20221126140057 43 166 1.0 5.0 0.00 0.00 0.00 33 1017.7
20221126135557 43 235 2.0 4.0 0.00 0.00 0.00 33 1017.7
20221126135055 43 119 0.0 4.0 0.00 0.00 0.00 33 1017.6
20221126134559 43 104 2.0 5.0 0.00 0.00 0.00 33 1017.6
20221126134052 44 98 1.0 7.0 0.00 0.00 0.00 32 1017.6
20221126133553 44 7 2.0 10.0 0.00 0.00 0.00 29 1017.6
20221126133056 45 306 6.0 10.0 0.00 0.00 0.00 29 1017.5
20221126132553 45 301 3.0 6.0 0.00 0.00 0.00 28 1017.5
20221126132050 45 284 3.0 5.0 0.00 0.00 0.00 29 1017.5
20221126131553 44 322 3.0 5.0 0.00 0.00 0.00 29 1017.4
20221126131050 44 292 3.0 5.0 0.00 0.00 0.00 29 1017.4
20221126130552 44 257 3.0 6.0 0.00 0.00 0.00 30 1017.3
20221126130049 44 274 4.0 9.0 0.00 0.00 0.00 29 1017.4
20221126125547 45 271 5.0 10.0 0.00 0.00 0.00 29 1017.4
20221126125046 45 284 4.0 9.0 0.00 0.00 0.00 29 1017.4
20221126124548 45 323 3.0 9.0 0.00 0.00 0.00 28 1017.5
20221126124043 46 326 3.0 6.0 0.00 0.00 0.00 28 1017.7
20221126123547 46 279 2.0 4.0 0.00 0.00 0.00 27 1017.7
20221126123042 46 272 2.0 4.0 0.00 0.00 0.00 27 1017.8
20221126122542 46 260 1.0 3.0 0.00 0.00 0.00 27 1017.8
20221126122041 46 219 0.0 4.0 0.00 0.00 0.00 28 1017.9
20221126121539 46 212 2.0 4.0 0.00 0.00 0.00 28 1018.0
20221126121039 46 223 2.0 4.0 0.00 0.00 0.00 28 1018.0
20221126120539 46 247 2.0 4.0 0.00 0.00 0.00 28 1018.1
20221126120052 47 281 2.0 5.0 0.00 0.00 0.00 27 1018.2
20221126115538 47 290 1.0 4.0 0.00 0.00 0.00 27 1018.3
20221126115037 47 196 0.0 4.0 0.00 0.00 0.00 27 1018.3
20221126114551 47 191 2.0 5.0 0.00 0.00 0.00 28 1018.3
20221126114042 47 275 3.0 5.0 0.00 0.00 0.00 28 1018.3
20221126113536 47 274 2.0 5.0 0.00 0.00 0.00 28 1018.5
20221126113039 47 248 3.0 5.0 0.00 0.00 0.00 28 1018.6
20221126112537 47 249 2.0 4.0 0.00 0.00 0.00 28 1018.6
20221126112033 47 226 2.0 4.0 0.00 0.00 0.00 28 1018.7
20221126111535 47 244 1.0 4.0 0.00 0.00 0.00 27 1018.7
20221126111037 47 266 0.0 4.0 0.00 0.00 0.00 27 1018.8
20221126110536 47 269 2.0 4.0 0.00 0.00 0.00 27 1018.8
20221126110032 48 269 0.0 1.0 0.00 0.00 0.00 27 1018.8
20221126105532 48 269 0.0 2.0 0.00 0.00 0.00 27 1018.9
20221126105032 48 269 1.0 2.0 0.00 0.00 0.00 26 1018.8
20221126104541 48 269 0.0 1.0 0.00 0.00 0.00 26 1018.9
20221126104031 48 269 0.0 2.0 0.00 0.00 0.00 27 1018.9
20221126103529 48 269 1.0 2.0 0.00 0.00 0.00 27 1019.1
20221126103038 47 269 1.0 2.0 0.00 0.00 0.00 28 1019.2
20221126102528 47 269 1.0 4.0 0.00 0.00 0.00 28 1019.3
20221126102027 47 269 2.0 5.0 0.00 0.00 0.00 28 1019.3
20221126101526 47 270 1.0 5.0 0.00 0.00 0.00 29 1019.4
20221126101024 46 269 2.0 5.0 0.00 0.00 0.00 29 1019.5
20221126100525 46 259 3.0 6.0 0.00 0.00 0.00 29 1019.6
20221126100033 46 274 3.0 6.0 0.00 0.00 0.00 29 1019.7
20221126095522 46 259 3.0 8.0 0.00 0.00 0.00 29 1019.8
20221126095021 47 271 2.0 8.0 0.00 0.00 0.00 29 1019.9
20221126094523 47 269 2.0 5.0 0.00 0.00 0.00 28 1020.1
20221126094020 47 262 2.0 4.0 0.00 0.00 0.00 28 1020.3
20221126093518 48 118 0.0 3.0 0.00 0.00 0.00 30 1020.3
20221126093023 48 118 1.0 3.0 0.00 0.00 0.00 30 1020.5
20221126092516 48 196 1.0 3.0 0.00 0.00 0.00 28 1020.6
20221126092016 48 196 1.0 3.0 0.00 0.00 0.00 28 1020.7
20221126091515 48 192 1.0 3.0 0.00 0.00 0.00 28 1020.7
20221126091013 47 192 1.0 4.0 0.00 0.00 0.00 28 1020.8
20221126090512 47 213 2.0 4.0 0.00 0.00 0.00 29 1021.0
20221126090020 48 301 0.0 2.0 0.00 0.00 0.00 30 1021.0
20221126085510 47 301 0.0 2.0 0.00 0.00 0.00 30 1021.2
20221126085010 47 272 0.0 2.0 0.00 0.00 0.00 30 1021.3
20221126084520 47 272 0.0 3.0 0.00 0.00 0.00 31 1021.3
20221126084009 47 272 1.0 5.0 0.00 0.00 0.00 31 1021.4
20221126083507 46 272 3.0 5.0 0.00 0.00 0.00 31 1021.5
20221126083007 46 275 2.0 8.0 0.00 0.00 0.00 32 1021.6
20221126082506 46 265 4.0 6.0 0.00 0.00 0.00 32 1021.7
20221126082005 46 268 3.0 5.0 0.00 0.00 0.00 32 1021.7
20221126081504 47 244 2.0 4.0 0.00 0.00 0.00 32 1021.8
20221126081003 47 290 2.0 3.0 0.00 0.00 0.00 32 1022.0
20221126080503 47 290 2.0 3.0 0.00 0.00 0.00 32 1022.1
20221126080005 47 294 1.0 5.0 0.00 0.00 0.00 33 1022.1
20221126075501 46 294 3.0 5.0 0.00 0.00 0.00 33 1022.2
20221126075100 47 285 3.0 5.0 0.00 0.00 0.00 33 1022.2
20221126074605 46 295 2.0 4.0 0.00 0.00 0.00 34 1022.4
20221126074059 46 277 3.0 4.0 0.00 0.00 0.00 34 1022.5
20221126073559 46 274 2.0 4.0 0.00 0.00 0.00 34 1022.7
20221126073100 46 266 2.0 4.0 0.00 0.00 0.00 34 1022.8
20221126072557 47 263 2.0 4.0 0.00 0.00 0.00 33 1022.8
20221126072057 47 274 1.0 3.0 0.00 0.00 0.00 32 1023.0
20221126071617 47 274 2.0 3.0 0.00 0.00 0.00 33 1023.1
20221126071053 46 274 2.0 4.0 0.00 0.00 0.00 34 1023.1
20221126070555 46 274 3.0 4.0 0.00 0.00 0.00 34 1023.3
20221126070052 45 274 3.0 4.0 0.00 0.00 0.00 35 1023.4
20221126065549 45 266 3.0 4.0 0.00 0.00 0.00 35 1023.6
20221126065050 45 251 2.0 4.0 0.00 0.00 0.00 35 1023.7
20221126064550 46 192 0.0 2.0 0.00 0.00 0.00 34 1023.9
20221126064047 46 85 0.0 1.0 0.00 0.00 0.00 34 1024.0
20221126063548 47 85 0.0 3.0 0.00 0.00 0.00 34 1024.2
20221126063058 47 85 1.0 3.0 0.00 0.00 0.00 33 1024.3
20221126062545 47 85 2.0 3.0 0.00 0.00 0.00 34 1024.5
20221126062044 46 71 1.0 3.0 0.00 0.00 0.00 34 1024.6
20221126061545 46 57 1.0 3.0 0.00 0.00 0.00 34 1024.6
20221126061042 46 26 0.0 3.0 0.00 0.00 0.00 34 1024.7
20221126060542 46 259 2.0 3.0 0.00 0.00 0.00 35 1024.7
20221126060044 46 255 2.0 4.0 0.00 0.00 0.00 36 1025.0
20221126055545 46 255 2.0 5.0 0.00 0.00 0.00 35 1025.1
20221126055039 46 254 3.0 5.0 0.00 0.00 0.00 35 1025.1
20221126054544 46 257 2.0 4.0 0.00 0.00 0.00 35 1025.2
20221126054038 47 213 1.0 3.0 0.00 0.00 0.00 34 1025.3
20221126053537 47 202 1.0 3.0 0.00 0.00 0.00 34 1025.5
20221126053037 47 181 0.0 2.0 0.00 0.00 0.00 34 1025.7
20221126052539 47 181 0.0 2.0 0.00 0.00 0.00 34 1025.8
20221126052035 47 181 1.0 3.0 0.00 0.00 0.00 34 1025.8
20221126051536 46 181 2.0 3.0 0.00 0.00 0.00 35 1025.9
20221126051033 46 207 2.0 4.0 0.00 0.00 0.00 35 1025.9
20221126050532 46 213 2.0 5.0 0.00 0.00 0.00 36 1026.0
20221126050042 45 195 3.0 5.0 0.00 0.00 0.00 36 1026.2
20221126045531 45 220 3.0 5.0 0.00 0.00 0.00 37 1026.3
20221126045031 45 222 2.0 4.0 0.00 0.00 0.00 37 1026.4
20221126044531 45 235 3.0 4.0 0.00 0.00 0.00 37 1026.5
20221126044028 46 230 3.0 4.0 0.00 0.00 0.00 36 1026.5
20221126043532 46 230 3.0 5.0 0.00 0.00 0.00 35 1026.6
20221126043035 47 224 3.0 5.0 0.00 0.00 0.00 35 1026.7
20221126042527 47 177 3.0 6.0 0.00 0.00 0.00 35 1026.7
20221126042027 46 190 4.0 7.0 0.00 0.00 0.00 35 1026.9
20221126041526 46 196 3.0 5.0 0.00 0.00 0.00 36 1027.0
20221126041026 46 204 4.0 6.0 0.00 0.00 0.00 36 1027.0
20221126040525 47 198 5.0 8.0 0.00 0.00 0.00 35 1027.1
20221126040027 46 196 4.0 8.0 0.00 0.00 0.00 36 1027.2
20221126035524 46 196 3.0 6.0 0.00 0.00 0.00 36 1027.1
20221126035024 46 226 4.0 6.0 0.00 0.00 0.00 37 1027.3
20221126034523 45 215 4.0 6.0 0.00 0.00 0.00 38 1027.4
20221126034022 46 221 3.0 5.0 0.00 0.00 0.00 38 1027.5
20221126033522 46 198 4.0 6.0 0.00 0.00 0.00 37 1027.6
20221126033021 46 208 3.0 6.0 0.00 0.00 0.00 37 1027.7
20221126032521 45 207 3.0 8.0 0.00 0.00 0.00 38 1027.7
20221126032020 45 223 3.0 8.0 0.00 0.00 0.00 38 1027.8
20221126031520 46 221 4.0 6.0 0.00 0.00 0.00 37 1027.9
20221126031017 46 223 3.0 6.0 0.00 0.00 0.00 37 1028.0
20221126030517 46 215 3.0 5.0 0.00 0.00 0.00 37 1028.2
20221126030016 47 235 3.0 5.0 0.00 0.00 0.00 36 1028.4
20221126025514 47 221 2.0 5.0 0.00 0.00 0.00 36 1028.5
20221126025015 46 213 2.0 4.0 0.00 0.00 0.00 36 1028.5
20221126024516 46 217 2.0 4.0 0.00 0.00 0.00 36 1028.6
20221126024014 46 222 2.0 4.0 0.00 0.00 0.00 37 1028.6
20221126023514 46 219 2.0 4.0 0.00 0.00 0.00 36 1028.7
20221126023012 46 215 2.0 5.0 0.00 0.00 0.00 36 1028.9
20221126022512 46 223 3.0 5.0 0.00 0.00 0.00 36 1029.0
20221126022011 47 220 2.0 4.0 0.00 0.00 0.00 36 1029.1
20221126021509 47 225 2.0 4.0 0.00 0.00 0.00 35 1029.2
20221126021109 47 223 2.0 3.0 0.00 0.00 0.00 35 1029.3
20221126020508 47 214 2.0 5.0 0.00 0.00 0.00 35 1029.4
20221126020008 47 208 3.0 5.0 0.00 0.00 0.00 35 1029.4
20221126015508 47 213 2.0 4.0 0.00 0.00 0.00 35 1029.4
20221126015007 47 269 2.0 4.0 0.00 0.00 0.00 35 1029.5
20221126014507 47 269 3.0 4.0 0.00 0.00 0.00 35 1029.6
20221126014006 47 269 2.0 4.0 0.00 0.00 0.00 35 1029.6
20221126013505 47 269 2.0 3.0 0.00 0.00 0.00 35 1029.7
20221126013007 47 269 1.0 3.0 0.00 0.00 0.00 35 1029.8
20221126012504 47 269 2.0 3.0 0.00 0.00 0.00 35 1030.0
20221126012003 47 269 1.0 4.0 0.00 0.00 0.00 35 1030.1
20221126011504 47 269 3.0 4.0 0.00 0.00 0.00 35 1030.1
20221126011002 47 271 2.0 4.0 0.00 0.00 0.00 34 1030.2
20221126010502 48 277 3.0 4.0 0.00 0.00 0.00 34 1030.1
20221126010002 48 266 0.0 3.0 0.00 0.00 0.00 33 1030.2
20221126005503 48 266 2.0 3.0 0.00 0.00 0.00 34 1030.4
20221126005100 48 266 2.0 3.0 0.00 0.00 0.00 34 1030.4
20221126004606 47 266 2.0 3.0 0.00 0.00 0.00 34 1030.4
20221126004100 47 266 2.0 4.0 0.00 0.00 0.00 34 1030.5
20221126003559 47 266 2.0 4.0 0.00 0.00 0.00 35 1030.6
20221126003105 47 266 2.0 3.0 0.00 0.00 0.00 35 1030.7
20221126002557 47 266 2.0 5.0 0.00 0.00 0.00 35 1030.8
20221126002100 48 266 3.0 5.0 0.00 0.00 0.00 35 1030.9
20221126001557 48 256 2.0 3.0 0.00 0.00 0.00 35 1031.0
20221126001055 48 225 1.0 3.0 0.00 0.00 0.00 35 1031.0
20221126000556 48 196 1.0 4.0 0.00 0.00 0.00 35 1031.0
20221126000057 48 192 2.0 4.0 0.00 0.00 0.00 35 1031.1
20221125235556 48 195 3.0 4.0 0.00 0.00 0.00 36 1031.2
20221125235053 48 196 3.0 4.0 0.00 0.00 0.00 36 1031.2
20221125234555 48 198 2.0 4.0 0.00 0.00 0.00 36 1031.2
20221125234056 47 197 2.0 3.0 0.00 0.00 0.00 37 1031.3
20221125233553 48 215 1.0 3.0 0.00 0.00 0.00 37 1031.3
20221125233101 48 230 2.0 3.0 0.00 0.00 0.00 37 1031.5
20221125232551 48 207 2.0 4.0 0.00 0.00 0.00 37 1031.5
20221125232051 49 198 2.0 4.0 0.00 0.00 0.00 36 1031.7
20221125231559 50 200 2.0 4.0 0.00 0.00 0.00 36 1031.7
20221125231048 50 193 3.0 4.0 0.00 0.00 0.00 35 1031.8
20221125230548 50 200 3.0 4.0 0.00 0.00 0.00 35 1031.9
20221125230047 50 204 3.0 4.0 0.00 0.00 0.00 35 1032.1
20221125225552 50 200 3.0 5.0 0.00 0.00 0.00 35 1032.1
20221125225046 50 199 3.0 5.0 0.00 0.00 0.00 34 1032.2
20221125224552 50 183 3.0 5.0 0.00 0.00 0.00 34 1032.2
20221125224046 50 192 3.0 5.0 0.00 0.00 0.00 34 1032.2
20221125223546 50 190 2.0 5.0 0.00 0.00 0.00 34 1032.2
20221125223059 50 161 1.0 4.0 0.00 0.00 0.00 34 1032.3
20221125222544 50 155 1.0 6.0 0.00 0.00 0.00 35 1032.4
20221125222044 50 129 3.0 7.0 0.00 0.00 0.00 34 1032.4
20221125221554 50 129 2.0 6.0 0.00 0.00 0.00 35 1032.5
20221125221044 50 60 1.0 4.0 0.00 0.00 0.00 35 1032.6
20221125220543 50 121 1.0 4.0 0.00 0.00 0.00 35 1032.6
20221125220043 50 71 1.0 3.0 0.00 0.00 0.00 34 1032.6
20221125215542 50 71 0.0 2.0 0.00 0.00 0.00 35 1032.7
20221125215042 50 61 1.0 6.0 0.00 0.00 0.00 34 1032.8
20221125214541 50 123 2.0 6.0 0.00 0.00 0.00 34 1032.9
20221125214040 50 80 2.0 3.0 0.00 0.00 0.00 34 1032.9
20221125213539 50 59 1.0 5.0 0.00 0.00 0.00 34 1033.0
20221125213039 50 55 1.0 5.0 0.00 0.00 0.00 34 1033.1
20221125212538 50 73 1.0 3.0 0.00 0.00 0.00 33 1033.1
20221125212038 50 71 1.0 3.0 0.00 0.00 0.00 33 1033.2
20221125211539 50 13 1.0 3.0 0.00 0.00 0.00 34 1033.3
20221125211039 50 62 0.0 3.0 0.00 0.00 0.00 34 1033.4
20221125210535 50 57 1.0 3.0 0.00 0.00 0.00 34 1033.5
20221125210034 49 55 1.0 6.0 0.00 0.00 0.00 34 1033.8
20221125205534 49 55 3.0 6.0 0.00 0.00 0.00 34 1033.9
20221125205033 50 59 2.0 4.0 0.00 0.00 0.00 34 1034.0
20221125204535 50 46 2.0 6.0 0.00 0.00 0.00 35 1034.1
20221125204032 50 35 2.0 5.0 0.00 0.00 0.00 33 1034.2
20221125203531 50 48 2.0 5.0 0.00 0.00 0.00 34 1034.2
20221125203031 50 69 2.0 5.0 0.00 0.00 0.00 32 1034.3
20221125202534 50 55 2.0 4.0 0.00 0.00 0.00 32 1034.3
20221125202031 51 36 2.0 5.0 0.00 0.00 0.00 32 1034.4
20221125201528 51 67 2.0 4.0 0.00 0.00 0.00 33 1034.4
20221125201028 51 46 1.0 3.0 0.00 0.00 0.00 33 1034.6
20221125200526 51 41 1.0 5.0 0.00 0.00 0.00 32 1034.7
20221125200026 51 73 2.0 5.0 0.00 0.00 0.00 33 1034.8
20221125195525 50 59 1.0 4.0 0.00 0.00 0.00 33 1035.0
20221125195025 50 98 1.0 4.0 0.00 0.00 0.00 33 1035.1
20221125194524 50 80 1.0 4.0 0.00 0.00 0.00 32 1035.1
20221125194026 50 91 1.0 4.0 0.00 0.00 0.00 33 1035.3
20221125193522 50 42 2.0 5.0 0.00 0.00 0.00 34 1035.4
20221125193032 50 55 2.0 5.0 0.00 0.00 0.00 33 1035.5
20221125192521 50 64 2.0 5.0 0.00 0.00 0.00 33 1035.7
20221125192020 50 77 2.0 5.0 0.00 0.00 0.00 34 1035.8
20221125191531 50 57 2.0 3.0 0.00 0.00 0.00 32 1035.8
20221125191017 50 56 2.0 4.0 0.00 0.00 0.00 33 1036.0
20221125190517 50 59 1.0 4.0 0.00 0.00 0.00 34 1036.1
20221125190017 49 62 1.0 4.0 0.00 0.00 0.00 34 1036.3
20221125185515 49 60 2.0 8.0 0.00 0.00 0.00 34 1036.5
20221125185015 49 112 1.0 8.0 0.00 0.00 0.00 35 1036.5
20221125184514 49 50 4.0 7.0 0.00 0.00 0.00 35 1036.7
20221125184018 49 30 5.0 8.0 0.00 0.00 0.00 35 1036.9
20221125183512 49 53 4.0 8.0 0.00 0.00 0.00 35 1037.0
20221125183012 49 34 5.0 9.0 0.00 0.00 0.00 34 1037.0
20221125182511 49 56 4.0 9.0 0.00 0.00 0.00 34 1037.0
20221125182010 49 19 4.0 8.0 0.00 0.00 0.00 35 1037.3
20221125181509 49 93 4.0 7.0 0.00 0.00 0.00 35 1037.4
20221125181008 49 38 4.0 7.0 0.00 0.00 0.00 34 1037.5
20221125180510 49 62 4.0 8.0 0.00 0.00 0.00 34 1037.8
20221125180006 49 41 4.0 8.0 0.00 0.00 0.00 35 1038.0
20221125175508 49 50 4.0 9.0 0.00 0.00 0.00 34 1038.1
20221125175003 50 50 5.0 9.0 0.00 0.00 0.00 33 1038.2
20221125174502 51 48 3.0 5.0 0.00 0.00 0.00 32 1038.3
20221125174001 52 69 3.0 5.0 0.00 0.00 0.00 32 1038.4
20221125173602 53 69 2.0 4.0 0.00 0.00 0.00 32 1038.5
20221125173059 53 108 2.0 4.0 0.00 0.00 0.00 31 1038.5
20221125172557 53 73 2.0 3.0 0.00 0.00 0.00 30 1038.6
20221125172059 53 208 2.0 3.0 0.00 0.00 0.00 31 1038.8
20221125171554 53 162 1.0 3.0 0.00 0.00 0.00 30 1039.0
20221125171045 53 180 2.0 3.0 0.00 0.00 0.00 30 1039.1
20221125170542 53 156 2.0 3.0 0.00 0.00 0.00 30 1039.3
20221125170041 52 123 1.0 4.0 0.00 0.00 0.00 31 1039.5
20221125165538 51 121 2.0 4.0 0.00 0.00 0.00 32 1039.5
20221125165034 51 105 2.0 4.0 0.00 0.00 0.00 32 1039.8
20221125164533 50 129 1.0 4.0 0.00 0.00 0.00 33 1039.7
20221125164032 50 177 2.0 5.0 0.00 0.00 0.00 33 1039.7
20221125163531 50 190 3.0 5.0 0.00 0.00 0.00 32 1039.9
20221125163029 51 196 2.0 4.0 0.00 0.00 0.00 32 1039.9
20221125162528 52 174 3.0 4.0 0.00 0.00 0.00 31 1040.0
20221125162027 52 159 1.0 3.0 0.00 0.00 0.00 31 1040.1
20221125161525 52 74 0.0 3.0 0.00 0.00 0.00 31 1040.2
20221125161025 52 73 0.0 3.0 0.00 0.00 0.00 32 1040.3
20221125160525 51 75 1.0 3.0 0.00 0.00 0.00 32 1040.4
20221125160021 51 117 1.0 3.0 0.00 0.00 0.00 33 1040.5
20221125155519 50 107 1.0 3.0 0.00 0.00 0.00 33 1040.5
20221125155018 50 107 1.0 3.0 0.00 0.00 0.00 34 1040.5
20221125154516 49 109 1.0 3.0 0.00 0.00 0.00 36 1040.7
20221125154014 47 213 0.0 2.0 0.00 0.00 0.00 35 1040.7
20221125153513 47 213 1.0 2.0 0.00 0.00 0.00 35 1040.8